�N����,����,�~����,�C��,���x,�C��,����,���ϕ���,�ő�u�ԕ���,�ő厞����,���˗�,�I�_���x,�n�����x,�ő啗���N��,DTYPE
"17/02/26","00:10",0.0,3.3,86.2,1013.5,277.5,1.0,1.6,296.1,0.00,1.3,6.8,"00:03:04",1
"17/02/26","00:20",0.0,3.3,86.2,1013.5,302.9,1.7,2.8,314.2,0.00,1.3,6.7,"00:12:16",1
"17/02/26","00:30",0.0,3.2,86.1,1013.5,322.6,2.3,3.2,324.9,0.00,1.1,6.7,"00:29:12",1
"17/02/26","00:40",0.0,3.2,86.4,1013.3,327.9,2.7,3.9,338.4,0.00,1.2,6.7,"00:34:16",1
"17/02/26","00:50",0.0,3.1,86.5,1013.3,322.7,2.7,3.5,327.2,0.00,1.1,6.6,"00:43:52",1
"17/02/26","01:00",0.0,3.2,87.0,1013.3,324.4,2.7,4.2,330.5,0.00,1.3,6.7,"00:57:52",1
"17/02/26","01:10",0.0,3.3,86.7,1013.3,326.0,3.0,4.7,323.8,0.00,1.3,6.3,"01:08:24",1
"17/02/26","01:20",0.0,3.4,86.2,1013.8,307.7,2.8,4.4,325.3,0.00,1.4,6.4,"01:12:16",1
"17/02/26","01:30",0.0,3.5,85.5,1013.5,313.8,3.0,5.0,318.2,0.00,1.3,6.4,"01:28:32",1
"17/02/26","01:40",0.0,3.5,84.9,1013.5,291.8,2.1,4.0,333.6,0.00,1.2,6.7,"01:30:16",1
"17/02/26","01:50",0.0,3.4,85.0,1013.8,289.1,1.8,3.1,312.6,0.00,1.2,6.5,"01:48:48",1
"17/02/26","02:00",0.0,3.3,85.4,1013.8,332.9,1.8,2.9,329.7,0.00,1.1,6.4,"01:55:36",1
"17/02/26","02:10",0.0,3.0,86.4,1014.0,320.2,2.2,3.7,331.6,0.00,1.0,6.3,"02:08:40",1
"17/02/26","02:20",0.0,3.0,86.9,1013.8,312.5,2.5,4.0,333.0,0.00,1.1,6.2,"02:16:08",1
"17/02/26","02:30",0.0,2.8,86.6,1014.0,329.4,1.8,3.1,329.3,0.00,0.8,6.3,"02:29:36",1
"17/02/26","02:40",0.0,2.7,87.1,1013.8,311.1,2.6,3.9,327.6,0.00,0.8,6.2,"02:36:40",1
"17/02/26","02:50",0.0,2.4,87.3,1013.8,300.0,1.7,3.3,319.2,0.00,0.5,6.1,"02:44:40",1
"17/02/26","03:00",0.0,2.2,88.1,1013.3,310.2,2.1,3.6,326.8,0.00,0.5,6.2,"02:50:40",1
"17/02/26","03:10",0.0,2.2,88.7,1013.3,312.0,2.3,3.3,322.5,0.00,0.6,6.1,"03:01:04",1
"17/02/26","03:20",0.0,2.0,89.1,1013.3,288.0,2.0,3.1,316.8,0.00,0.4,5.8,"03:10:02",1
"17/02/26","03:30",0.0,1.9,89.7,1013.5,296.2,2.2,3.1,312.1,0.00,0.4,5.9,"03:20:08",1
"17/02/26","03:40",0.0,1.7,90.0,1013.5,305.0,1.5,4.0,328.4,0.00,0.3,5.9,"03:30:48",1
"17/02/26","03:50",0.0,1.4,90.0,1013.3,315.2,1.8,3.4,317.3,0.00,0.0,5.8,"03:46:34",1
"17/02/26","04:00",0.0,0.9,90.6,1013.0,307.5,2.0,3.5,318.9,0.00,-0.4,5.9,"03:53:12",1
"17/02/26","04:10",0.0,0.6,92.0,1013.3,283.0,1.6,2.0,305.6,0.00,-0.5,5.6,"04:00:08",1
"17/02/26","04:20",0.0,0.6,93.2,1013.3,305.5,2.1,2.5,322.0,0.00,-0.3,5.6,"04:14:08",1
"17/02/26","04:30",0.0,0.8,93.9,1013.3,299.3,2.0,3.1,324.8,0.00,0.0,5.6,"04:20:56",1
"17/02/26","04:40",0.0,0.8,94.2,1013.3,294.8,2.0,2.5,316.9,0.00,0.0,5.4,"04:37:20",1
"17/02/26","04:50",0.0,0.7,94.2,1013.3,290.6,1.5,1.9,275.0,0.00,-0.1,5.6,"04:42:32",1
"17/02/26","05:00",0.0,0.4,94.2,1013.5,286.7,0.8,1.7,318.7,0.00,-0.4,5.5,"04:55:28",1
"17/02/26","05:10",0.0,0.2,94.6,1013.3,289.1,1.2,2.0,310.6,0.00,-0.5,5.3,"05:02:40",1
"17/02/26","05:20",0.0,0.0,95.0,1014.0,284.6,1.5,2.4,326.1,0.00,-0.7,5.3,"05:16:24",1
"17/02/26","05:30",0.0,0.0,95.4,1013.3,325.7,2.0,2.6,347.6,0.00,-0.6,5.2,"05:27:44",1
"17/02/26","05:40",0.0,-0.3,95.3,1013.5,294.9,1.2,2.2,316.7,0.00,-0.9,5.4,"05:30:08",1
"17/02/26","05:50",0.0,-0.6,95.8,1014.0,316.9,1.0,2.0,321.8,0.00,-1.1,5.1,"05:40:32",1
"17/02/26","06:00",0.0,-0.7,96.2,1013.5,303.3,1.1,1.6,322.6,0.00,-1.2,5.2,"05:56:16",1
"17/02/26","06:10",0.0,-0.8,96.5,1013.5,286.1,0.8,1.2,310.6,0.00,-1.2,5.0,"06:07:20",1
"17/02/26","06:20",0.0,-0.7,96.8,1013.8,327.1,1.2,1.9,336.7,0.00,-1.1,5.0,"06:14:32",1
"17/02/26","06:30",0.0,-0.9,96.7,1014.0,299.7,1.1,1.6,320.9,0.00,-1.3,4.8,"06:23:04",1
"17/02/26","06:40",0.0,-1.0,97.3,1013.8,313.4,1.1,1.6,323.3,0.00,-1.3,4.9,"06:35:18",1
"17/02/26","06:50",0.0,-1.1,97.5,1013.8,325.7,1.5,2.1,326.3,0.00,-1.4,4.8,"06:43:54",1
"17/02/26","07:00",0.0,-1.0,97.7,1013.5,308.9,1.0,1.4,348.4,0.00,-1.3,4.8,"06:52:24",1
"17/02/26","07:10",0.0,-0.7,98.0,1014.0,289.9,1.0,1.4,314.5,0.00,-0.9,4.7,"07:04:48",1
"17/02/26","07:20",0.0,0.1,97.0,1014.2,245.3,1.0,2.0,307.2,0.00,-0.3,4.7,"07:19:12",1
"17/02/26","07:30",0.0,0.7,97.6,1014.5,303.2,1.1,1.9,311.3,0.01,0.4,4.8,"07:20:32",1
"17/02/26","07:40",0.0,0.6,97.2,1014.9,315.5,2.3,2.7,320.6,0.01,0.2,4.7,"07:37:38",1
"17/02/26","07:50",0.0,1.5,95.6,1014.7,312.1,2.0,2.8,319.1,0.03,0.9,4.8,"07:44:32",1
"17/02/26","08:00",0.0,2.4,91.7,1015.2,313.5,1.8,2.6,311.5,0.05,1.2,5.0,"07:58:20",1
"17/02/26","08:10",0.0,3.3,88.8,1015.2,304.9,1.5,2.9,322.6,0.07,1.7,5.0,"08:02:00",1
"17/02/26","08:20",0.0,3.8,87.6,1015.4,189.6,0.5,1.0,206.9,0.08,2.0,4.9,"08:14:24",1
"17/02/26","08:30",0.0,4.3,83.7,1015.4,157.0,0.6,1.3,101.9,0.11,1.8,5.2,"08:29:40",1
"17/02/26","08:40",0.0,5.2,81.3,1015.6,227.1,0.5,1.0,238.0,0.17,2.3,5.3,"08:33:34",1
"17/02/26","08:50",0.0,5.8,78.5,1016.1,239.8,0.6,1.1,191.7,0.21,2.4,5.4,"08:46:38",1
"17/02/26","09:00",0.0,5.8,77.0,1016.6,215.0,1.0,1.6,221.6,0.22,2.1,5.5,"08:53:42",1
"17/02/26","09:10",0.0,6.4,75.4,1016.8,233.0,0.8,1.4,189.8,0.24,2.4,5.7,"09:01:02",1
"17/02/26","09:20",0.0,6.5,75.4,1016.8,171.0,0.8,2.4,135.8,0.27,2.5,5.7,"09:16:42",1
"17/02/26","09:30",0.0,6.9,71.9,1017.1,212.3,1.2,2.5,225.3,0.30,2.2,6.1,"09:25:44",1
"17/02/26","09:40",0.0,7.4,70.0,1017.1,254.7,0.8,2.0,100.1,0.33,2.3,6.3,"09:36:16",1
"17/02/26","09:50",0.0,8.0,70.6,1016.8,215.7,1.0,1.9,161.4,0.35,3.0,6.6,"09:43:44",1
"17/02/26","10:00",0.0,8.4,67.7,1016.6,196.0,1.1,2.4,183.1,0.38,2.8,6.9,"09:50:02",1
"17/02/26","10:10",0.0,8.3,67.4,1017.1,187.0,1.3,4.7,208.4,0.38,2.7,6.9,"10:05:04",1
"17/02/26","10:20",0.0,8.9,64.7,1017.3,217.4,1.2,2.9,207.1,0.40,2.7,7.1,"10:17:12",1
"17/02/26","10:30",0.0,9.0,62.8,1016.6,182.0,1.0,2.7,173.3,0.39,2.3,7.6,"10:29:12",1
"17/02/26","10:40",0.0,9.6,58.5,1016.6,127.8,1.1,2.0,109.8,0.45,1.9,7.6,"10:31:28",1
"17/02/26","10:50",0.0,10.4,54.3,1016.6,253.2,1.1,2.5,233.0,0.46,1.6,7.8,"10:41:44",1
"17/02/26","11:00",0.0,10.4,51.8,1016.4,205.0,2.0,3.9,231.2,0.49,1.0,8.3,"10:57:28",1
"17/02/26","11:10",0.0,10.6,50.5,1016.1,225.1,1.7,3.4,231.1,0.48,0.8,8.7,"11:01:36",1
"17/02/26","11:20",0.0,10.6,49.1,1016.1,175.0,1.6,4.0,224.1,0.50,0.4,8.7,"11:10:02",1
"17/02/26","11:30",0.0,11.2,49.2,1015.9,220.7,2.0,4.3,229.3,0.52,1.0,9.1,"11:23:04",1
"17/02/26","11:40",0.0,11.2,45.0,1015.6,174.7,2.3,4.9,185.3,0.53,-0.2,9.1,"11:34:56",1
"17/02/26","11:50",0.0,11.9,42.5,1015.6,190.3,1.3,2.6,181.2,0.52,-0.4,9.3,"11:48:48",1
"17/02/26","12:00",0.0,12.3,37.5,1015.6,266.1,1.6,3.7,321.2,0.57,-1.7,9.5,"11:59:12",1
"17/02/26","12:10",0.0,11.9,37.7,1014.9,268.9,2.7,4.4,329.6,0.57,-2.0,9.8,"12:02:48",1
"17/02/26","12:20",0.0,12.5,34.4,1015.2,270.7,2.6,4.7,273.4,0.56,-2.7,10.1,"12:19:52",1
"17/02/26","12:30",0.0,12.5,33.6,1014.9,275.1,2.6,4.2,355.5,0.57,-3.0,10.3,"12:26:40",1
"17/02/26","12:40",0.0,12.9,34.0,1014.7,264.6,2.5,4.3,40.6,0.54,-2.5,10.4,"12:36:40",1
"17/02/26","12:50",0.0,12.7,32.9,1014.2,341.4,2.3,7.1,340.6,0.54,-3.2,10.7,"12:44:08",1
"17/02/26","13:00",0.0,13.3,37.4,1014.5,283.3,2.0,4.7,324.5,0.53,-0.9,10.8,"12:52:24",1
"17/02/26","13:10",0.0,12.9,34.9,1013.8,331.3,2.8,5.6,341.9,0.50,-2.2,10.7,"13:04:24",1
"17/02/26","13:20",0.0,12.7,33.1,1014.2,295.4,2.7,5.4,341.7,0.49,-3.1,10.9,"13:13:52",1
"17/02/26","13:30",0.0,12.6,35.3,1013.8,282.9,2.3,5.0,315.4,0.40,-2.3,11.2,"13:25:36",1
"17/02/26","13:40",0.0,12.5,35.2,1013.8,275.4,2.8,5.5,268.6,0.38,-2.4,11.1,"13:34:16",1
"17/02/26","13:50",0.0,12.8,36.0,1013.8,270.0,2.7,5.7,321.7,0.43,-1.9,11.3,"13:48:48",1
"17/02/26","14:00",0.0,12.7,38.0,1013.8,274.0,2.2,4.9,300.2,0.34,-1.2,11.4,"13:53:28",1
"17/02/26","14:10",0.0,12.5,37.1,1013.8,315.0,2.2,4.5,343.1,0.26,-1.7,11.3,"14:08:48",1
"17/02/26","14:20",0.0,12.2,39.8,1013.5,331.0,2.5,4.4,27.6,0.22,-1.0,11.2,"14:17:12",1
"17/02/26","14:30",0.0,12.4,38.7,1013.8,292.2,3.1,5.2,236.3,0.26,-1.2,11.2,"14:27:20",1
"17/02/26","14:40",0.0,12.0,38.8,1013.5,324.2,3.2,5.9,318.9,0.22,-1.5,11.1,"14:35:20",1
"17/02/26","14:50",0.0,12.6,37.8,1013.8,285.6,2.5,3.7,308.2,0.32,-1.4,11.1,"14:41:12",1
"17/02/26","15:00",0.0,12.3,37.9,1013.8,321.2,3.0,5.7,329.9,0.23,-1.6,11.0,"14:54:00",1
"17/02/26","15:10",0.0,12.1,38.7,1013.8,321.4,2.7,5.8,1.9,0.18,-1.5,11.2,"15:04:48",1
"17/02/26","15:20",0.0,12.0,40.1,1013.8,327.2,2.5,4.1,341.9,0.17,-1.1,11.2,"15:15:28",1
"17/02/26","15:30",0.0,11.8,41.8,1013.3,338.2,3.4,5.9,337.5,0.17,-0.7,11.0,"15:23:20",1
"17/02/26","15:40",0.0,11.9,40.7,1013.5,337.4,2.6,6.5,324.0,0.18,-1.0,10.8,"15:34:08",1
"17/02/26","15:50",0.0,11.8,41.2,1013.5,323.6,3.2,5.7,316.8,0.16,-0.9,10.9,"15:40:24",1
"17/02/26","16:00",0.0,11.7,41.6,1013.8,330.4,2.8,6.2,331.2,0.14,-0.9,10.8,"15:59:36",1
"17/02/26","16:10",0.0,11.5,41.1,1013.8,346.0,2.3,5.1,340.5,0.13,-1.2,10.7,"16:03:28",1
"17/02/26","16:20",0.0,11.5,43.1,1013.8,340.3,3.1,5.6,335.7,0.12,-0.6,10.7,"16:17:28",1
"17/02/26","16:30",0.0,11.5,41.5,1014.2,324.8,3.4,6.2,336.8,0.10,-1.1,10.6,"16:21:28",1
"17/02/26","16:40",0.0,11.4,42.2,1013.8,321.8,2.0,3.6,357.8,0.08,-0.9,10.5,"16:37:36",1
"17/02/26","16:50",0.0,11.0,44.5,1014.0,341.0,2.8,6.0,346.4,0.06,-0.6,10.4,"16:45:20",1
"17/02/26","17:00",0.0,10.8,45.0,1014.2,336.5,2.5,4.0,342.1,0.04,-0.6,10.3,"16:50:08",1
"17/02/26","17:10",0.0,10.6,46.4,1014.2,342.8,2.2,4.2,318.3,0.04,-0.4,10.0,"17:02:00",1
"17/02/26","17:20",0.0,10.3,46.6,1014.0,345.1,2.3,4.2,343.3,0.03,-0.6,10.2,"17:14:48",1
"17/02/26","17:30",0.0,10.1,48.1,1014.5,346.7,2.2,4.4,332.6,0.01,-0.3,10.0,"17:25:52",1
"17/02/26","17:40",0.0,9.8,50.1,1014.2,334.0,2.7,4.9,349.5,0.00,-0.1,10.0,"17:38:50",1
"17/02/26","17:50",0.0,9.4,52.0,1014.2,332.4,3.4,5.7,323.2,0.00,0.1,9.8,"17:48:56",1
"17/02/26","18:00",0.0,9.2,53.0,1014.5,332.5,3.4,5.1,339.1,0.00,0.2,9.7,"17:50:32",1
"17/02/26","18:10",0.0,8.9,54.9,1014.9,331.9,3.2,4.9,336.3,0.00,0.4,9.7,"18:00:08",1
"17/02/26","18:20",0.0,8.6,56.8,1014.9,338.2,2.7,3.9,346.4,0.00,0.6,9.4,"18:16:40",1
"17/02/26","18:30",0.0,8.3,59.4,1015.2,337.2,3.1,5.2,343.7,0.00,0.9,9.5,"18:29:12",1
"17/02/26","18:40",0.0,8.0,61.5,1015.2,334.8,2.7,4.5,339.3,0.00,1.1,9.4,"18:33:36",1
"17/02/26","18:50",0.0,7.8,63.9,1015.6,340.8,3.1,5.2,328.3,0.00,1.4,9.2,"18:48:40",1
"17/02/26","19:00",0.0,7.7,66.2,1015.9,331.1,4.1,7.0,345.7,0.00,1.8,9.1,"18:58:48",1
"17/02/26","19:10",0.0,7.5,68.5,1015.9,336.2,4.4,6.8,336.7,0.00,2.1,8.9,"19:06:00",1
"17/02/26","19:20",0.0,7.2,70.3,1015.9,333.4,5.0,7.5,340.4,0.00,2.2,8.9,"19:15:12",1
"17/02/26","19:30",0.0,7.1,71.3,1016.1,324.8,4.4,7.5,317.0,0.00,2.3,9.0,"19:25:52",1
"17/02/26","19:40",0.0,7.0,71.7,1016.4,328.1,4.0,6.8,327.8,0.00,2.3,8.7,"19:30:16",1
"17/02/26","19:50",0.0,6.8,71.8,1016.1,335.7,3.5,5.4,330.5,0.00,2.1,8.8,"19:48:24",1
"17/02/26","20:00",0.0,6.6,72.1,1016.1,334.9,3.2,5.0,4.9,0.00,2.0,8.6,"19:53:04",1
"17/02/26","20:10",0.0,6.3,72.8,1016.4,327.9,3.6,5.0,344.1,0.00,1.8,8.4,"20:04:40",1
"17/02/26","20:20",0.0,6.0,73.4,1016.1,323.2,3.7,5.1,323.7,0.00,1.6,8.6,"20:10:40",1
"17/02/26","20:30",0.0,6.0,73.1,1016.1,320.7,3.6,4.7,321.2,0.00,1.6,8.3,"20:20:56",1
"17/02/26","20:40",0.0,6.0,72.6,1016.1,319.2,3.9,5.5,326.5,0.00,1.5,8.4,"20:34:40",1
"17/02/26","20:50",0.0,6.0,72.4,1016.4,323.8,3.0,4.3,338.5,0.00,1.5,8.3,"20:49:52",1
"17/02/26","21:00",0.0,5.7,72.9,1016.1,311.7,2.5,4.4,314.3,0.00,1.3,8.1,"20:50:56",1
"17/02/26","21:10",0.0,5.4,74.2,1016.4,316.5,2.1,3.2,319.8,0.00,1.2,8.2,"21:03:36",1
"17/02/26","21:20",0.0,5.1,75.7,1016.8,313.1,2.1,3.1,329.2,0.00,1.2,7.9,"21:12:00",1
"17/02/26","21:30",0.0,4.9,77.7,1017.1,330.9,2.5,3.9,334.0,0.00,1.4,7.9,"21:20:56",1
"17/02/26","21:40",0.0,5.4,79.3,1017.3,309.0,3.5,5.2,316.9,0.00,2.1,7.7,"21:32:32",1
"17/02/26","21:50",0.0,5.6,78.6,1016.8,320.8,3.0,4.3,330.7,0.00,2.2,7.7,"21:44:24",1
"17/02/26","22:00",0.0,5.7,78.3,1017.3,312.2,3.6,5.1,317.7,0.00,2.3,7.7,"21:58:24",1
"17/02/26","22:10",0.0,5.7,77.6,1017.3,316.4,2.5,4.1,308.7,0.00,2.1,7.7,"22:01:04",1
"17/02/26","22:20",0.0,5.5,78.1,1017.1,310.7,2.3,2.8,320.1,0.00,2.0,7.7,"22:12:16",1
"17/02/26","22:30",0.0,5.5,79.1,1017.3,313.7,3.0,3.7,322.8,0.00,2.2,7.7,"22:25:20",1
"17/02/26","22:40",0.0,5.5,79.9,1017.3,325.2,2.1,3.4,321.1,0.00,2.4,7.7,"22:30:48",1
"17/02/26","22:50",0.0,5.4,81.4,1017.5,306.9,2.5,3.6,321.9,0.00,2.5,7.7,"22:45:20",1
"17/02/26","23:00",0.0,5.5,82.1,1017.3,303.4,2.2,3.6,310.7,0.00,2.7,7.5,"22:50:08",1
"17/02/26","23:10",0.0,5.5,82.6,1018.0,322.1,2.7,4.1,325.5,0.00,2.8,7.7,"23:09:02",1
"17/02/26","23:20",0.0,5.6,82.9,1017.5,322.6,3.7,4.8,311.5,0.00,3.0,7.7,"23:16:24",1
"17/02/26","23:30",0.0,5.6,82.8,1017.3,322.9,4.4,5.8,328.4,0.00,3.0,7.6,"23:20:02",1
"17/02/26","23:40",0.0,5.5,82.9,1017.5,321.1,4.7,6.4,321.7,0.00,2.9,7.4,"23:35:20",1
"17/02/26","23:50",0.0,5.4,83.1,1017.8,325.7,3.6,5.8,322.4,0.00,2.8,7.5,"23:40:40",1
"17/02/26","24:00",0.0,5.3,82.6,1018.0,317.3,3.7,7.2,328.9,0.00,2.6,7.3,"23:53:28",1
